Temp_Advection
nan nan nan nan nan nan nan nan nan nan nan nan nan nan nan nan nan nan nan nan nan nan nan nan nan nan nan nan nan nan nan nan nan nan nan nan nan nan nan nan nan nan
nan -0 0 0 0 0 -0 -0 -1 -1 -0 0 0 -0 0 -0 -0 0 0 -0 -0 -0 0 0 0 0 0 -0 -0 -0 -0 -0 -0 -0 0 -0 -0 -0 0 -0 -0 nan
nan -0 -0 -0 0 0 0 0 -0 -0 -0 -0 -0 -0 -0 0 0 0 0 -0 -0 -0 -0 0 0 0 -0 -0 -0 0 -0 -0 -0 0 -0 -0 -0 0 0 0 -0 nan
nan -0 -1 -1 -1 -0 -0 0 0 0 -0 -0 -0 -0 -0 -0 0 0 0 0 -0 -0 -0 -0 -0 0 0 -0 -0 -0 -0 -0 -0 0 0 -0 0 0 0 0 0 nan
nan -0 -0 -1 -1 -1 -1 -1 -0 0 0 -0 -0 -0 -0 -0 0 0 -0 -0 -0 -0 -0 -0 -0 -0 0 -0 -0 -0 -0 -0 0 1 0 0 1 0 -0 -0 -0 nan
nan -0 -0 -0 -0 -0 -0 -1 -1 -0 -0 -0 -0 -0 -0 -0 -0 -0 -0 -0 -0 0 0 0 -0 -0 -0 -0 0 -0 -0 -0 0 1 0 -0 1 1 -0 -0 -0 nan
nan -0 -0 -0 -0 -0 -0 -0 -0 -0 -0 -0 -0 -0 -0 -0 -1 -1 -0 -0 -0 -0 0 0 -0 -0 -0 -0 0 0 -0 -0 -0 0 -0 -0 1 0 -0 -0 -1 nan
nan -0 -0 -0 -0 -0 -0 -0 -0 -0 -0 -0 -0 -1 -1 -0 -0 -0 -0 -0 -0 -1 -0 0 -0 -0 -0 0 0 0 -0 -0 -0 -0 0 0 1 0 -0 -0 -0 nan
nan -0 -0 -0 -0 -0 -0 -0 -0 -0 -0 -0 -0 -1 -1 -1 -0 -0 -0 -0 -1 -0 0 0 -0 -0 -0 0 0 0 0 0 0 -0 -0 0 0 0 0 0 0 nan
nan -0 0 0 -0 -0 -0 -0 -0 -0 -0 -0 -0 -0 -0 -1 -0 -0 -0 -1 -1 -0 0 1 0 -0 -0 -0 -0 -0 0 0 0 0 -0 -0 -0 -0 0 1 0 nan
nan -0 -0 -0 -0 -0 -0 -0 -0 -0 -0 -0 -0 -0 -0 -0 -1 -1 -0 -1 -1 -1 -0 0 1 -0 -0 -0 -0 -0 0 -0 0 0 0 -0 -1 -1 0 1 0 nan
nan -0 -0 -0 -0 -0 -0 -0 0 0 -0 -0 -0 -0 -0 -0 -0 -0 -0 -0 -0 -1 -1 -0 1 0 0 -0 -0 -0 -0 -0 -0 0 0 -0 -1 -1 -0 1 1 nan
nan -0 -0 -0 -0 -0 -0 -0 -0 -0 -0 -0 -0 -0 -0 -0 -0 -0 -0 -0 -0 -0 -1 -0 -0 0 0 0 -0 -0 0 0 -0 -0 0 -0 -0 -0 0 0 0 nan
nan -0 -0 -0 -0 -0 -0 -0 -0 -0 -0 -0 -0 -0 -0 -0 -0 -0 -0 -0 -0 -0 -0 -0 -0 -0 0 0 -0 -0 0 0 0 -0 -0 -0 -0 0 0 -0 -0 nan
nan -0 -0 -0 -0 -0 -0 -0 -0 -0 -0 -0 -0 -0 -0 -0 -0 -0 -0 -0 -0 -0 -0 -0 0 0 -0 -0 -1 -1 -0 0 0 0 -0 -1 -0 0 0 -0 0 nan
nan 0 -0 -0 -0 -0 -0 -0 -0 -0 -0 -1 -1 -0 -0 -0 -0 -0 -0 -0 -1 -0 -0 -0 -0 0 0 0 -0 -1 -1 -0 0 0 0 -0 -0 -0 0 -0 0 nan
nan 0 -0 -0 -0 -0 -0 -0 -0 -0 -0 -0 -1 -1 -0 -0 -0 -0 -0 -0 -0 -0 -0 -0 -0 -0 0 0 0 -0 -0 -1 -0 0 0 -0 -0 -0 0 0 0 nan
nan 0 0 0 0 0 -0 -0 -0 -1 -0 -0 -0 -0 -0 -0 -0 -0 -0 -0 -0 -0 -0 -0 -0 -0 -0 0 0 0 0 -0 -0 -0 -0 0 -0 -0 0 0 0 nan
nan 0 0 -0 -0 0 -0 -0 -0 -0 -1 -0 -0 -0 -0 -0 -0 -0 -0 -0 -0 -0 -0 -0 -0 -0 -0 0 -0 0 0 -0 -0 -0 -0 0 -0 -0 -0 -0 0 nan
nan 0 0 -0 -0 -0 -0 -0 0 -0 -0 -1 -0 -0 -0 -0 -0 -0 -0 -0 -0 -0 -0 -1 -0 -0 -0 0 -0 -0 0 0 -0 -0 -0 -0 0 0 -0 -0 0 nan
nan 0 -0 -0 -0 -0 -0 -0 -0 -0 -0 -0 -0 -0 -0 -0 -0 -0 -0 -0 -0 -0 -0 -1 -0 -0 -0 0 -0 -0 -0 -0 -0 -0 -0 -0 -0 0 0 -0 0 nan
nan 0 0 -0 -0 -0 -0 -0 -0 -0 -0 -0 -0 -0 -0 -0 -0 -0 -0 -0 -0 -0 -0 -1 -1 0 0 0 -0 -0 -0 -1 -0 -0 0 -0 -0 0 0 -0 -0 nan
nan 0 0 0 -0 -0 -0 -1 -1 -0 -0 -0 -0 -1 -0 -0 -0 -0 -0 -0 -0 -0 -0 -1 -1 -0 0 0 0 0 -0 -1 -1 -1 -0 -0 -0 -0 0 0 0 nan
nan 0 0 0 -0 -0 -0 -1 -1 -1 -0 0 -0 -1 -1 -0 -0 -1 -1 -0 0 0 -0 -0 -1 -0 0 0 0 0 -0 -0 -0 -0 -0 0 0 -0 -0 0 0 nan
nan 0 0 0 0 -0 -0 -0 -1 -1 -1 0 0 -0 -0 -0 -0 -0 -1 -1 -0 -0 -0 -0 -0 -0 -0 0 0 0 -0 -0 0 -0 -0 -0 0 -0 -1 -0 0 nan
nan nan nan nan nan nan nan nan nan nan nan nan nan nan nan nan nan nan nan nan nan nan nan nan nan nan nan nan nan nan nan nan nan nan nan nan nan nan nan nan nan nan
Wind_Speed
8 8 8 9 8 8 9 9 10 11 12 12 12 12 13 13 13 13 14 14 15 16 16 17 18 19 20 21 22 22 21 20 20 21 21 22 24 25 25 25 23 23
9 10 10 9 9 9 10 10 11 12 11 12 12 13 14 14 14 14 15 14 15 16 16 16 17 18 19 20 21 22 21 20 20 19 20 23 26 26 25 24 24 24
10 11 10 10 10 10 11 12 12 12 11 11 12 13 13 14 15 16 16 16 16 16 16 18 18 18 18 18 21 23 23 24 24 23 23 25 25 25 24 23 24 25
11 12 12 11 12 12 11 11 12 12 12 12 13 13 12 13 14 15 16 16 16 16 17 19 19 18 19 19 20 22 23 26 27 26 28 28 25 24 24 24 24 24
12 12 13 13 14 14 13 13 12 13 13 13 13 13 12 14 14 15 16 16 16 16 18 19 19 19 20 20 21 22 23 25 26 27 30 30 29 28 27 26 25 24
11 12 13 14 14 14 14 14 14 14 14 14 15 14 14 16 17 17 17 17 17 17 18 19 20 21 21 20 22 23 23 24 25 26 29 31 32 31 29 28 26 24
12 12 13 13 13 14 15 15 15 15 14 15 16 17 17 17 18 17 16 17 17 18 18 18 20 20 20 20 21 23 25 25 24 24 27 31 33 33 32 30 28 27
13 13 13 13 14 15 15 14 15 15 16 16 17 18 18 18 17 16 15 16 19 20 19 18 20 21 20 20 21 22 24 26 26 26 26 29 33 34 34 32 30 30
15 15 14 14 15 15 15 15 15 16 17 17 17 17 18 17 16 16 16 18 21 21 20 19 20 20 20 19 20 20 22 25 27 28 27 29 32 35 35 34 32 31
15 15 15 15 16 16 16 16 16 17 18 17 17 17 17 17 17 17 18 19 21 21 20 20 20 19 19 19 20 20 21 23 26 29 30 30 31 33 35 36 35 34
14 15 16 16 16 16 16 16 16 17 17 16 16 16 17 18 18 18 18 19 20 21 22 22 21 20 21 21 20 20 21 22 24 26 29 30 31 31 33 35 38 38
14 15 16 16 16 15 16 16 16 17 17 16 15 16 18 18 18 19 19 19 20 21 22 22 21 21 22 21 20 20 22 22 23 25 27 29 30 31 31 33 36 38
15 16 17 17 16 16 17 17 16 17 18 17 16 16 18 18 19 19 19 19 20 21 22 22 22 23 23 21 20 19 21 22 22 24 25 27 29 29 30 31 34 37
16 17 16 16 17 18 18 18 18 18 18 19 18 17 18 18 19 19 20 20 21 21 22 22 22 22 22 22 22 21 20 21 21 22 23 26 28 28 28 30 32 35
18 18 18 17 19 20 19 18 19 19 19 19 19 18 19 19 19 19 20 21 21 21 21 21 22 22 21 21 22 22 21 21 21 22 23 24 26 27 27 29 31 34
18 18 18 18 19 20 20 20 19 20 20 20 19 19 20 20 19 19 20 20 21 21 21 21 22 22 21 21 21 21 21 21 21 22 23 23 24 27 27 27 28 31
19 20 19 19 20 20 21 21 21 21 21 20 20 20 20 20 19 19 19 20 20 21 21 21 23 23 21 21 21 20 20 21 21 21 22 23 24 26 28 27 27 27
19 21 21 21 21 21 22 22 21 21 20 20 20 21 21 21 20 20 20 20 20 21 21 22 23 23 21 20 22 21 19 20 20 20 22 23 24 26 28 28 28 27
19 21 22 22 22 22 22 21 21 21 21 21 21 21 22 22 22 21 21 20 20 21 21 22 22 22 21 20 21 21 19 20 21 21 22 23 24 25 26 27 28 27
19 21 22 22 22 22 22 21 20 20 21 21 21 22 22 23 22 22 22 21 21 21 21 22 22 22 21 20 20 21 21 21 22 22 22 22 23 24 24 25 27 27
20 21 22 22 22 22 22 21 20 20 21 22 21 22 23 23 23 23 23 22 21 21 21 22 22 22 21 20 21 21 22 22 22 23 22 22 23 23 22 23 24 26
20 22 23 23 22 22 23 22 21 22 23 23 23 23 23 23 23 23 23 23 22 22 22 22 22 21 21 20 20 21 22 23 23 23 23 23 23 22 22 23 23 25
21 22 24 24 24 23 24 24 23 23 24 24 23 23 23 24 24 24 24 24 23 22 22 22 22 21 20 20 20 21 23 24 23 24 24 24 24 23 21 21 22 23
21 22 24 25 25 25 25 25 25 25 24 24 23 24 25 24 24 25 25 25 24 22 22 22 23 22 21 20 20 21 23 24 23 22 23 24 24 22 21 20 21 22
21 22 23 25 26 26 26 26 27 26 24 24 24 25 25 25 24 25 26 25 24 24 24 24 24 24 22 22 22 22 23 24 22 21 22 23 22 21 20 21 21 21
21 22 24 25 26 27 26 26 28 28 27 26 25 26 26 26 26 26 26 25 25 25 25 24 23 23 23 22 22 21 22 23 22 21 21 21 21 20 19 20 21 21
Wind_Direction
328 321 314 310 311 309 307 306 302 298 298 300 302 302 299 293 290 288 282 274 273 276 276 276 271 264 262 260 255 252 247 243 239 233 231 232 231 233 239 240 238 239
327 328 328 322 317 311 306 303 300 297 296 298 301 303 301 300 299 294 288 281 278 280 283 283 277 269 265 262 258 253 249 248 244 237 235 236 234 233 236 239 240 239
322 327 332 331 325 318 308 300 298 301 306 307 304 301 300 301 301 298 294 286 280 282 286 286 281 274 269 263 256 251 248 249 249 248 247 243 239 237 237 237 241 241
318 321 327 330 326 323 317 310 307 307 306 302 298 298 301 300 296 295 294 288 281 281 284 284 283 279 274 268 261 254 250 249 250 251 251 248 243 241 239 238 242 243
320 322 324 320 316 316 315 311 308 304 299 298 297 297 296 290 283 282 286 286 282 282 283 284 284 282 279 273 268 265 259 254 251 250 251 250 247 244 242 238 239 243
319 317 312 308 309 310 307 304 303 301 301 302 299 295 289 284 280 279 283 287 287 284 282 281 279 278 279 278 272 269 265 259 254 251 252 253 252 251 248 244 241 242
317 311 307 306 307 305 301 302 303 302 300 297 292 290 290 288 286 286 290 294 293 287 281 280 280 279 281 279 273 269 266 262 259 257 255 255 255 255 254 253 248 245
315 312 311 309 305 302 301 301 301 299 297 293 291 290 289 289 292 296 297 293 289 285 283 285 287 285 283 279 275 273 271 269 267 265 261 258 256 255 255 255 251 248
316 316 315 311 307 306 305 302 300 298 296 294 294 294 293 292 292 291 287 283 283 285 286 287 288 286 283 279 277 277 276 273 269 266 263 262 259 255 253 253 251 250
318 317 315 313 311 310 307 305 301 298 297 296 296 296 295 290 284 281 282 284 287 289 289 289 291 292 289 285 283 281 280 276 270 266 264 265 263 257 253 252 252 253
317 315 314 313 310 308 306 303 300 298 296 295 296 295 291 286 284 285 287 289 290 290 288 287 290 292 292 291 290 288 286 280 273 268 265 266 266 262 257 253 251 253
316 314 313 310 306 305 303 299 298 299 298 295 293 292 289 288 289 289 289 289 289 289 288 285 286 287 290 293 293 291 290 284 277 272 269 266 266 265 262 256 252 252
314 313 311 308 308 309 307 304 303 304 303 299 295 293 294 295 294 292 290 289 288 289 288 287 286 285 288 293 293 289 290 290 285 280 275 270 267 266 263 260 255 250
314 313 312 312 313 311 310 308 307 306 304 302 301 301 301 299 296 293 292 291 290 289 288 288 287 286 288 291 292 291 294 296 293 287 281 273 267 264 262 260 257 252
316 316 315 314 312 310 308 306 305 305 303 301 303 306 304 301 298 296 294 293 292 291 289 287 285 285 288 289 291 294 297 297 294 290 285 276 268 264 264 262 259 254
317 316 313 311 310 310 309 308 306 305 303 301 303 306 305 303 299 296 295 294 293 293 291 289 285 285 288 290 291 293 295 295 292 288 285 279 269 266 266 264 260 256
317 315 313 312 312 311 309 308 306 304 302 301 303 306 305 303 300 297 296 296 295 294 292 290 288 287 289 290 290 291 293 294 293 290 287 281 272 268 266 265 264 261
317 314 313 312 311 310 310 310 309 307 304 302 304 306 305 302 300 299 297 297 296 295 293 291 290 289 290 292 291 292 295 296 294 290 288 283 276 271 269 266 265 263
315 313 311 309 308 308 308 309 310 309 306 305 305 305 303 303 302 301 299 297 295 295 293 293 291 290 291 292 291 292 295 296 295 292 289 285 279 275 273 268 264 262
310 308 306 306 307 307 307 309 309 308 307 308 308 305 303 303 303 303 302 299 295 294 294 294 293 293 292 291 289 291 293 294 294 295 293 289 284 279 275 270 263 258
308 308 308 308 308 309 310 311 310 308 310 311 309 305 303 302 303 304 303 301 298 296 295 294 294 295 295 293 291 290 291 291 292 295 295 291 288 283 279 274 266 259
309 310 310 309 308 309 311 312 311 311 313 313 308 305 303 303 303 303 302 301 299 297 296 293 293 294 294 292 290 288 288 289 291 294 293 290 289 287 283 277 269 262
312 312 312 310 309 309 311 311 311 312 314 312 308 305 305 305 304 303 303 302 301 298 295 293 293 293 292 291 290 286 285 287 289 290 290 289 291 291 286 278 269 265
311 310 309 309 309 309 309 308 309 312 313 310 306 305 306 307 305 305 305 304 302 298 296 295 294 293 292 289 286 282 280 282 285 288 289 289 290 290 286 280 272 267
310 308 308 309 309 310 308 307 308 311 311 308 305 305 306 306 306 305 304 304 303 299 298 298 295 293 292 289 284 281 280 280 283 287 289 289 288 287 284 281 275 268
310 309 309 310 310 311 310 309 309 310 310 307 305 305 305 306 307 306 304 304 303 300 300 299 295 293 293 291 286 283 283 283 285 286 288 289 290 288 285 283 279 273
Height
1524 1524 1523 1523 1523 1522 1522 1522 1521 1521 1520 1520 1520 1520 1519 1519 1519 1519 1518 1518 1518 1518 1517 1517 1517 1517 1518 1518 1519 1519 1518 1518 1518 1519 1519 1519 1520 1521 1523 1525 1526 1527
1524 1523 1522 1521 1521 1521 1521 1520 1520 1519 1519 1518 1518 1518 1518 1517 1517 1516 1516 1516 1516 1515 1515 1515 1515 1515 1515 1516 1516 1516 1516 1516 1516 1517 1517 1517 1518 1519 1519 1521 1523 1524
1523 1522 1521 1520 1519 1519 1519 1518 1518 1517 1517 1517 1517 1517 1516 1516 1515 1514 1514 1514 1513 1513 1513 1513 1513 1513 1513 1513 1513 1512 1512 1512 1513 1514 1515 1515 1516 1517 1517 1518 1520 1521
1522 1521 1520 1519 1518 1518 1517 1516 1516 1516 1516 1516 1515 1515 1515 1515 1514 1513 1513 1512 1511 1511 1510 1510 1510 1510 1510 1510 1509 1509 1509 1508 1509 1510 1512 1512 1514 1514 1515 1516 1516 1518
1520 1520 1519 1518 1517 1516 1516 1515 1515 1514 1514 1514 1514 1514 1513 1513 1512 1511 1511 1510 1510 1509 1509 1508 1507 1507 1507 1507 1506 1506 1506 1505 1505 1507 1508 1510 1511 1511 1511 1512 1514 1515
1519 1519 1518 1517 1516 1515 1515 1514 1513 1513 1512 1513 1512 1512 1511 1510 1509 1509 1508 1508 1507 1507 1507 1506 1505 1504 1504 1504 1503 1503 1502 1502 1502 1503 1505 1507 1509 1509 1508 1509 1511 1513
1518 1517 1516 1516 1515 1514 1513 1513 1512 1512 1511 1511 1510 1509 1509 1508 1507 1506 1506 1506 1505 1505 1504 1504 1503 1502 1502 1501 1501 1500 1499 1499 1500 1500 1501 1502 1504 1506 1506 1507 1509 1511
1516 1516 1515 1514 1513 1512 1512 1511 1511 1510 1509 1509 1508 1507 1506 1505 1505 1504 1504 1504 1503 1502 1502 1501 1501 1500 1499 1499 1498 1498 1497 1497 1497 1497 1498 1498 1500 1502 1503 1504 1505 1507
1515 1514 1513 1512 1511 1511 1510 1509 1509 1508 1507 1506 1505 1505 1504 1503 1503 1502 1502 1501 1500 1499 1499 1499 1498 1498 1497 1497 1496 1496 1495 1495 1495 1495 1496 1497 1497 1498 1499 1501 1502 1504
1513 1512 1511 1511 1510 1509 1508 1507 1507 1506 1505 1504 1503 1502 1502 1501 1500 1499 1499 1498 1497 1497 1496 1496 1495 1495 1495 1494 1493 1493 1493 1492 1492 1493 1494 1494 1494 1495 1496 1498 1499 1500
1512 1511 1510 1509 1508 1507 1506 1505 1504 1503 1502 1501 1500 1500 1499 1498 1498 1497 1496 1495 1495 1494 1494 1494 1493 1493 1492 1492 1492 1491 1491 1490 1490 1490 1490 1491 1491 1491 1492 1494 1495 1496
1510 1509 1508 1507 1505 1504 1503 1502 1501 1500 1500 1499 1498 1497 1496 1496 1495 1494 1494 1493 1492 1492 1491 1491 1491 1491 1490 1490 1490 1489 1488 1488 1487 1487 1487 1487 1487 1488 1488 1489 1491 1492
1509 1508 1506 1505 1503 1502 1501 1500 1499 1498 1497 1496 1496 1495 1494 1493 1492 1492 1491 1490 1490 1489 1489 1488 1488 1488 1487 1487 1487 1487 1485 1485 1484 1484 1483 1483 1483 1483 1484 1485 1486 1487
1507 1506 1504 1503 1502 1500 1499 1498 1497 1496 1495 1494 1493 1492 1492 1491 1490 1489 1489 1488 1488 1487 1486 1486 1485 1485 1485 1484 1484 1483 1482 1482 1481 1481 1480 1479 1479 1479 1479 1480 1480 1481
1505 1504 1502 1501 1500 1498 1497 1496 1495 1494 1493 1492 1491 1490 1489 1489 1488 1487 1486 1485 1485 1484 1484 1483 1483 1483 1482 1481 1480 1480 1479 1479 1478 1477 1477 1476 1475 1475 1475 1475 1475 1475
1504 1502 1501 1500 1498 1497 1496 1494 1493 1492 1490 1489 1488 1487 1487 1486 1485 1485 1484 1483 1482 1482 1481 1481 1480 1480 1480 1479 1478 1477 1477 1476 1475 1474 1473 1473 1472 1471 1470 1470 1470 1470
1502 1501 1499 1498 1497 1495 1494 1492 1490 1489 1488 1487 1486 1485 1485 1484 1483 1482 1481 1481 1480 1479 1479 1478 1477 1477 1477 1477 1476 1475 1474 1473 1472 1471 1470 1469 1469 1467 1466 1466 1467 1467
1501 1499 1497 1496 1494 1493 1491 1490 1488 1487 1485 1485 1484 1483 1482 1481 1481 1480 1479 1478 1478 1477 1476 1476 1475 1474 1474 1474 1473 1472 1472 1471 1469 1469 1467 1466 1466 1464 1464 1463 1463 1464
1499 1497 1496 1494 1492 1491 1489 1487 1486 1485 1484 1483 1481 1480 1480 1479 1478 1478 1477 1476 1475 1474 1474 1473 1472 1472 1471 1471 1470 1469 1469 1468 1467 1466 1464 1463 1463 1462 1461 1460 1460 1460
1498 1496 1494 1492 1490 1488 1487 1485 1484 1483 1482 1481 1479 1478 1477 1476 1476 1475 1474 1474 1473 1472 1471 1470 1469 1469 1469 1469 1468 1467 1466 1465 1464 1463 1462 1461 1460 1459 1459 1457 1457 1457
1496 1494 1492 1490 1488 1487 1485 1483 1482 1481 1479 1479 1477 1476 1475 1474 1473 1472 1472 1471 1470 1470 1469 1467 1467 1466 1466 1466 1465 1464 1464 1463 1461 1460 1459 1458 1457 1457 1456 1455 1455 1455
1494 1492 1490 1488 1486 1485 1483 1481 1480 1479 1477 1476 1475 1474 1473 1472 1471 1470 1469 1468 1468 1467 1466 1465 1464 1464 1463 1463 1462 1461 1460 1459 1459 1458 1456 1455 1454 1454 1454 1453 1452 1452
1492 1490 1488 1486 1484 1483 1481 1479 1478 1476 1475 1474 1473 1471 1470 1469 1468 1467 1467 1466 1465 1464 1463 1462 1461 1461 1460 1460 1459 1458 1457 1456 1456 1455 1454 1452 1451 1451 1451 1450 1450 1450
1490 1488 1486 1484 1482 1481 1479 1477 1476 1474 1473 1472 1471 1469 1468 1467 1466 1465 1464 1463 1462 1461 1461 1459 1458 1457 1457 1457 1456 1455 1454 1453 1453 1452 1451 1450 1449 1448 1448 1447 1447 1448
1487 1486 1484 1482 1480 1479 1477 1475 1474 1472 1471 1470 1469 1467 1466 1465 1464 1462 1461 1460 1459 1459 1458 1457 1455 1454 1454 1453 1453 1452 1451 1450 1450 1449 1448 1447 1446 1446 1445 1444 1444 1445
1485 1484 1482 1480 1478 1476 1475 1473 1472 1470 1469 1467 1466 1465 1463 1462 1461 1460 1458 1457 1456 1455 1454 1453 1453 1451 1450 1450 1449 1449 1449 1447 1447 1446 1445 1444 1443 1443 1442 1441 1441 1442